Tracking 19250 objects as of 23-Sep-2018
HD Live streaming from Space Station
objects crossing your sky now

FENGYUN 1C DEB

Track FENGYUN 1C DEB now!
10-day predictions


NORAD ID: 32210
Int'l Code: 1999-025CVG
Perigee: 835.4 km
Apogee: 947.0 km
Inclination: 99.1 °
Period: 102.7 minutes
Semi major axis: 7262 km
RCS: 0.0144 m2 (small)
Launch date: May 10, 1999
Source: People's Republic of China (PRC)
Launch site: Taiyaun Space Center, China (TSC)

Note: This is SATELLITE DEBRIS
aabbcc
Your satellite tracking list
Your tracking list is empty




NASA's NSSDC Master Catalog

Two Line Element Set (TLE):
1 32210U 99025CVG 18253.87207300 +.00000452 +00000-0 +31286-3 0  9993
2 32210 099.1112 287.8134 0076851 001.2021 358.9315 14.02825132568448
Source of the keplerian elements: AFSPC